[[{"header":{"parameterUnit":"m.s-1","parameterCategory":1,"la1":30.2991,"la2":30.254,"lo1":-89.0895,"lo2":-89.0444,"dy":0.0017,"dx":0.0017,"nx":28,"ny":28,"refTime":"2024-10-08T21:00:00:Z","depth":0,"parameterNumber":2,"parameterNumberName":"U-component_of_WINDS"},"data":[0,0,0,0,0,0,0,0,0,0,0,0,0,0,0,0,0,0,0,0,0,0,0,0,0,0,0,0,0,0,0,0,0,0,0,0,0,0,0,0,0,0,0,0,0,0,0,0,0,0,0,0,0,0,0,0,0,0,-0.6001,-0.6002,0,-0.6053,-0.6053,-0.6054,-0.605,-0.6049,-0.6049,-0.6048,-0.6101,-0.6103,-0.6105,0,0,0,0,0,0,0,0,0,0,0,0,0,-0.59,-0.5902,-0.6001,-0.6002,-0.6003,-0.6053,-0.6053,-0.6054,-0.605,-0.6049,-0.6048,-0.6047,-0.61,-0.6103,-0.6105,0,0,0,0,0,0,0,0,0,0,0,0,0,-0.5947,-0.5902,-0.6001,-0.6007,-0.6008,-0.6053,-0.6053,-0.6054,-0.605,-0.6049,-0.6048,-0.6047,-0.6099,-0.6102,-0.6105,-0.6148,0,0,-0.6115,-0.6117,0,0,0,0,0,0,0,0,-0.5944,-0.5951,-0.6005,-0.6006,-0.6008,-0.6044,-0.6037,-0.6086,-0.6051,-0.6034,-0.6048,-0.6046,-0.6083,-0.6087,-0.6099,-0.6151,-0.6153,-0.6116,-0.6117,-0.6119,-0.612,0,0,0,0,0,0,0,-0.5941,-0.5948,-0.6022,-0.6006,-0.6008,-0.6007,-0.6012,-0.6046,-0.6064,-0.6036,-0.6035,-0.6042,-0.6083,-0.6096,-0.6101,-0.6154,-0.6115,-0.6118,-0.612,-0.6121,-0.6243,-0.6244,0,0,0,0,0,0,-0.5936,-0.5946,-0.602,-0.6023,-0.5972,-0.6009,-0.6015,-0.6033,-0.6064,-0.6068,-0.6042,-0.6041,-0.6092,-0.6097,-0.6103,-0.6155,-0.6119,-0.6122,-0.6124,-0.6241,-0.6243,-0.6244,0,0,0,0,0,0,-0.5934,-0.5943,-0.6018,-0.5984,-0.5994,-0.6012,-0.6033,-0.6035,-0.6048,-0.6069,-0.6072,-0.6053,-0.6091,-0.6098,-0.6137,-0.6157,-0.6123,-0.6126,-0.624,-0.6242,-0.6244,-0.626,0,0,0,0,0,0,-0.5931,-0.5942,-0.5959,-0.5985,-0.5996,-0.6052,-0.6034,-0.6037,-0.6054,-0.6053,-0.608,-0.6083,-0.609,-0.6132,-0.614,-0.6161,-0.6129,-0.6238,-0.6241,-0.6243,-0.6258,-0.6263,-0.6266,0,0,0,0,0,-0.5928,-0.5962,-0.596,-0.5969,-0.6017,-0.6053,-0.6059,-0.6067,-0.6055,-0.6072,-0.6085,-0.6082,-0.6153,-0.6136,-0.6145,-0.6167,-0.6237,-0.624,-0.6243,-0.6256,-0.6262,-0.6266,0,0,0,0,0,0,-0.5938,-0.5965,-0.5963,-0.6007,-0.6027,-0.6052,-0.6074,-0.6073,-0.6097,-0.6095,-0.6104,-0.611,-0.6149,-0.6162,-0.6142,-0.621,-0.6193,-0.6198,-0.62,-0.6206,-0.621,-0.6207,-0.6131,0,0,0,0,0,-0.5945,-0.5972,-0.5994,-0.603,-0.6041,-0.6055,-0.6071,-0.6076,-0.6098,-0.6106,-0.6123,-0.6144,-0.6171,-0.6189,-0.6215,-0.6259,-0.6265,-0.6278,-0.6283,-0.6286,-0.629,-0.6315,-0.6321,-0.6254,-0.6254,-0.6254,0,0,-0.596,-0.5978,-0.5995,-0.6033,-0.6049,-0.6077,-0.6063,-0.6093,-0.6114,-0.6111,-0.6149,-0.6161,-0.6186,-0.6228,-0.6247,-0.6239,-0.631,-0.629,-0.6292,-0.6295,-0.6319,-0.6325,-0.6331,-0.6256,-0.6256,-0.6255,0,0,-0.6003,-0.6019,-0.6051,-0.6068,-0.6093,-0.6102,-0.611,-0.6135,-0.6143,-0.6181,-0.6179,-0.6204,-0.625,-0.6268,-0.6283,-0.6331,-0.6329,-0.6339,-0.6361,-0.6385,-0.639,-0.6395,-0.6413,-0.6419,-0.6343,-0.6343,-0.6343,0,-0.6019,-0.6061,-0.6068,-0.6098,-0.6115,-0.6113,-0.6145,-0.6161,-0.6194,-0.6205,-0.6196,-0.6254,-0.627,-0.6316,-0.6328,-0.634,-0.6349,-0.6337,-0.6389,-0.6394,-0.6398,-0.6415,-0.6422,-0.6344,-0.6344,-0.6344,-0.6344,0,-0.608,-0.6109,-0.6131,-0.6163,-0.6182,-0.6213,-0.6224,-0.6243,-0.6245,-0.6255,-0.6294,-0.6313,-0.6343,-0.6354,-0.6356,-0.64,-0.6395,-0.6387,-0.6371,-0.6406,-0.6422,-0.6429,-0.6346,-0.6346,-0.6345,-0.6345,0,0,-0.6131,-0.6165,-0.6174,-0.6188,-0.6215,-0.6238,-0.6268,-0.6298,-0.6314,-0.6335,-0.6362,-0.6401,-0.6394,-0.6411,-0.6415,-0.6435,-0.6473,-0.6425,-0.6426,-0.6434,-0.6523,-0.6529,-0.6537,-0.6471,-0.6472,-0.6473,-0.6521,0,-0.6177,-0.6233,-0.6239,-0.6288,-0.6315,-0.6313,-0.634,-0.6359,-0.6369,-0.6394,-0.6405,-0.6432,-0.6421,-0.6431,-0.6451,-0.6464,-0.6491,-0.646,-0.6496,-0.6497,-0.6491,-0.6545,-0.6552,-0.6596,-0.6527,-0.6528,-0.6529,0,-0.6239,-0.6263,-0.6314,-0.6338,-0.6349,-0.6373,-0.64,-0.6423,-0.6445,-0.6451,-0.647,-0.6471,-0.6503,-0.6484,-0.6528,-0.6507,-0.6522,-0.653,-0.6532,-0.6537,-0.6516,-0.6552,-0.6611,-0.6618,-0.6539,-0.6538,-0.6538,0,-0.6273,-0.6317,-0.6354,-0.6366,-0.6394,-0.6411,-0.6423,-0.6444,-0.6461,-0.6484,-0.6495,-0.6522,-0.6537,-0.6557,-0.6566,-0.6551,-0.6609,-0.6592,-0.6616,-0.6615,-0.6629,-0.6628,-0.6692,-0.6637,-0.6636,-0.6636,-0.6636,0,-0.6324,-0.6356,-0.637,-0.6392,-0.6428,-0.6435,-0.647,-0.6481,-0.6499,-0.6524,-0.6524,-0.6547,-0.6556,-0.6581,-0.6587,-0.6623,-0.6629,-0.6635,-0.6637,-0.6636,-0.6635,-0.6647,-0.6644,-0.6638,-0.6638,-0.6637,-0.6637,0,-0.6368,-0.6379,-0.6419,-0.6441,-0.6448,-0.6473,-0.6493,-0.6515,-0.6524,-0.6555,-0.6563,-0.6577,-0.6606,-0.6616,-0.6651,-0.6656,-0.6697,-0.6696,-0.669,-0.6691,-0.6715,-0.6713,-0.6789,-0.6799,-0.6736,-0.6736,-0.6737,0,-0.6401,-0.6426,-0.6451,-0.6468,-0.6481,-0.6507,-0.6524,-0.6531,-0.6549,-0.6576,-0.6594,-0.6623,-0.6647,-0.6693,-0.6707,-0.6733,-0.6733,-0.6758,-0.6737,-0.6735,-0.6734,-0.6733,-0.6736,-0.6762,-0.6763,-0.6763,-0.6764,0,-0.6459,-0.6462,-0.6487,-0.6514,-0.6534,-0.6556,-0.6576,-0.659,-0.66,-0.662,-0.665,-0.6668,-0.6703,-0.6732,-0.6759,-0.6771,-0.6769,-0.677,-0.6777,-0.6777,-0.6773,-0.6776,-0.6702,-0.6768,-0.6768,-0.6767,-0.6767,-0.6767,-0.6499,-0.6521,-0.6542,-0.657,-0.6586,-0.6605,-0.6626,-0.6638,-0.6663,-0.6693,-0.6695,-0.6727,-0.6747,-0.6783,-0.6797,-0.6822,-0.6815,-0.6825,-0.6828,-0.6831,-0.6833,-0.6768,-0.6827,-0.6827,-0.6827,-0.6826,-0.6826,0,-0.6557,-0.6571,-0.6596,-0.6625,-0.6646,-0.6642,-0.6664,-0.6682,-0.6711,-0.673,-0.6753,-0.6787,-0.6814,-0.6829,-0.6857,-0.6874,-0.6873,-0.6881,-0.688,-0.6883,-0.6837,-0.6829,-0.688,-0.688,-0.688,-0.688,-0.688,-0.688,-0.659,-0.6627,-0.6633,-0.6677,-0.669,-0.6722,-0.6735,-0.6752,-0.6768,-0.6806,-0.6828,-0.6838,-0.6856,-0.6884,-0.6909,-0.6913,-0.6923,-0.6931,-0.6935,-0.6892,-0.6886,-0.6881,-0.6873,-0.6933,-0.6933,-0.6978,-0.6979,-0.6979]},{"header":{"parameterUnit":"m.s-1","parameterCategory":1,"la1":30.2991,"la2":30.254,"lo1":-89.0895,"lo2":-89.0444,"dy":0.0017,"dx":0.0017,"nx":28,"ny":28,"refTime":"2024-10-08T21:00:00:Z","depth":0,"parameterNumber":3,"parameterNumberName":"V-component_of_WINDS"},"data":[0,0,0,0,0,0,0,0,0,0,0,0,0,0,0,0,0,0,0,0,0,0,0,0,0,0,0,0,0,0,0,0,0,0,0,0,0,0,0,0,0,0,0,0,0,0,0,0,0,0,0,0,0,0,0,0,0,0,-6.2425,-6.2426,0,-6.2529,-6.253,-6.2531,-6.2447,-6.2444,-6.244,-6.2437,-6.2538,-6.2543,-6.2549,0,0,0,0,0,0,0,0,0,0,0,0,0,-6.2148,-6.2154,-6.2424,-6.2426,-6.2427,-6.2528,-6.253,-6.2531,-6.2448,-6.2444,-6.2439,-6.2435,-6.2536,-6.2543,-6.255,0,0,0,0,0,0,0,0,0,0,0,0,0,-6.2262,-6.2155,-6.2424,-6.2398,-6.2397,-6.2528,-6.253,-6.2532,-6.2449,-6.2443,-6.2438,-6.2433,-6.2533,-6.2542,-6.2551,-6.2712,0,0,-6.2578,-6.2582,0,0,0,0,0,0,0,0,-6.2255,-6.2272,-6.24,-6.24,-6.2399,-6.247,-6.2469,-6.2592,-6.245,-6.2429,-6.2437,-6.2431,-6.2519,-6.2529,-6.256,-6.2717,-6.2721,-6.2579,-6.2584,-6.2588,-6.2591,0,0,0,0,0,0,0,-6.2248,-6.2267,-6.2465,-6.2402,-6.2401,-6.2379,-6.2389,-6.2492,-6.2502,-6.243,-6.2424,-6.2438,-6.2517,-6.2551,-6.2561,-6.2723,-6.2579,-6.2587,-6.2592,-6.2596,-6.3018,-6.3023,0,0,0,0,0,0,-6.2243,-6.2261,-6.2462,-6.2469,-6.2313,-6.2388,-6.24,-6.2452,-6.2501,-6.2503,-6.2443,-6.2434,-6.2538,-6.2551,-6.2565,-6.2757,-6.2588,-6.2597,-6.2602,-6.3012,-6.3019,-6.3025,0,0,0,0,0,0,-6.2238,-6.2262,-6.2458,-6.2363,-6.2387,-6.2399,-6.2458,-6.2457,-6.2491,-6.251,-6.2511,-6.2476,-6.2535,-6.2552,-6.2677,-6.276,-6.2601,-6.2609,-6.3005,-6.3014,-6.3022,-6.3144,0,0,0,0,0,0,-6.223,-6.226,-6.2323,-6.2365,-6.2392,-6.257,-6.2463,-6.2463,-6.2507,-6.2497,-6.2542,-6.2544,-6.2532,-6.2664,-6.2686,-6.2769,-6.2616,-6.2997,-6.3009,-6.3019,-6.3133,-6.3156,-6.3176,0,0,0,0,0,-6.222,-6.2352,-6.2327,-6.2352,-6.2471,-6.2575,-6.259,-6.2576,-6.2514,-6.2577,-6.2589,-6.2542,-6.2747,-6.2677,-6.2701,-6.2789,-6.2992,-6.3006,-6.3018,-6.3123,-6.3151,-6.3175,0,0,0,0,0,0,-6.2317,-6.2357,-6.233,-6.2479,-6.2525,-6.2561,-6.2639,-6.2606,-6.2668,-6.2656,-6.2633,-6.2644,-6.2775,-6.2794,-6.2716,-6.2947,-6.2859,-6.2878,-6.2931,-6.2958,-6.2979,-6.2972,-6.2623,0,0,0,0,0,-6.2356,-6.2439,-6.2469,-6.2598,-6.2622,-6.2627,-6.2672,-6.2657,-6.2702,-6.2721,-6.2742,-6.2787,-6.2861,-6.291,-6.2979,-6.3134,-6.3143,-6.3206,-6.3228,-6.3245,-6.3262,-6.3346,-6.3374,-6.3068,-6.3068,-6.3068,0,0,-6.2437,-6.2469,-6.2522,-6.2618,-6.2652,-6.2737,-6.2644,-6.2738,-6.28,-6.2734,-6.2854,-6.2872,-6.2919,-6.306,-6.3123,-6.308,-6.3348,-6.3262,-6.3276,-6.3283,-6.3362,-6.3391,-6.3417,-6.3077,-6.3075,-6.3074,0,0,-6.2628,-6.2661,-6.2772,-6.2809,-6.2861,-6.2864,-6.2891,-6.2933,-6.2942,-6.3063,-6.3015,-6.3088,-6.3216,-6.3253,-6.3288,-6.3494,-6.3453,-6.3517,-6.3629,-6.3711,-6.3735,-6.3757,-6.3831,-6.3857,-6.3533,-6.3533,-6.3533,0,-6.2721,-6.285,-6.2833,-6.2932,-6.2975,-6.2921,-6.3033,-6.3068,-6.314,-6.3171,-6.3121,-6.3282,-6.331,-6.3459,-6.351,-6.354,-6.3569,-6.3512,-6.3734,-6.3755,-6.3774,-6.3845,-6.3872,-6.354,-6.354,-6.3539,-6.3538,0,-6.2962,-6.3052,-6.3135,-6.3209,-6.3261,-6.3366,-6.3364,-6.3419,-6.3399,-6.3406,-6.3529,-6.3561,-6.3637,-6.367,-6.3651,-6.3817,-6.3789,-6.3737,-6.3648,-6.3811,-6.3877,-6.3904,-6.3551,-6.3548,-6.3546,-6.3544,0,0,-6.3217,-6.3282,-6.3312,-6.3346,-6.34,-6.3468,-6.357,-6.3646,-6.3693,-6.3744,-6.3828,-6.3939,-6.3892,-6.3932,-6.3916,-6.3988,-6.4149,-6.3927,-6.3928,-6.3968,-6.4335,-6.4374,-6.4405,-6.4123,-6.4128,-6.4132,-6.4331,0,-6.3411,-6.3591,-6.358,-6.3748,-6.3831,-6.3781,-6.3869,-6.3911,-6.3921,-6.3991,-6.3999,-6.4079,-6.401,-6.4034,-6.4103,-6.4115,-6.4223,-6.4101,-6.42,-6.4204,-6.4191,-6.444,-6.4481,-6.4668,-6.4356,-6.4361,-6.4364,0,-6.3662,-6.3725,-6.3903,-6.3946,-6.398,-6.406,-6.4129,-6.4197,-6.4243,-6.4245,-6.4291,-6.4263,-6.4364,-6.4273,-6.4411,-6.4328,-6.4368,-6.438,-6.4387,-6.4396,-6.4294,-6.4456,-6.4727,-6.4755,-6.4404,-6.4401,-6.4398,0,-6.3832,-6.396,-6.4084,-6.4113,-6.4166,-6.4224,-6.4248,-6.4289,-6.4336,-6.4395,-6.4425,-6.4494,-6.4532,-6.4586,-6.4577,-6.4511,-6.4718,-6.4626,-6.4722,-6.4723,-6.4768,-6.4766,-6.505,-6.4793,-6.4792,-6.4792,-6.4791,0,-6.4051,-6.4161,-6.4161,-6.4237,-6.4359,-6.4343,-6.4464,-6.4481,-6.4519,-6.4596,-6.4555,-6.4628,-6.4612,-6.4684,-6.4677,-6.4793,-6.481,-6.4813,-6.4811,-6.4818,-6.4818,-6.4844,-6.4831,-6.4799,-6.4798,-6.4796,-6.4795,0,-6.4261,-6.4265,-6.4396,-6.4436,-6.4449,-6.4537,-6.457,-6.4641,-6.4647,-6.4746,-6.4768,-6.4777,-6.486,-6.4856,-6.4949,-6.4944,-6.5088,-6.5069,-6.5073,-6.5069,-6.5166,-6.5157,-6.5478,-6.5519,-6.5234,-6.5237,-6.5239,0,-6.4401,-6.4485,-6.4535,-6.4585,-6.4614,-6.4695,-6.4743,-6.473,-6.4781,-6.4841,-6.4905,-6.4984,-6.5047,-6.5181,-6.5195,-6.5266,-6.5249,-6.5356,-6.5259,-6.5264,-6.5251,-6.5247,-6.5256,-6.5376,-6.5379,-6.5381,-6.5384,0,-6.4649,-6.4647,-6.4719,-6.4793,-6.4851,-6.4908,-6.4959,-6.5002,-6.4994,-6.5054,-6.5139,-6.5188,-6.5284,-6.5363,-6.5432,-6.5454,-6.5418,-6.5414,-6.544,-6.5449,-6.5448,-6.5451,-6.5126,-6.5407,-6.5405,-6.5403,-6.5402,-6.5401,-6.4829,-6.4902,-6.4949,-6.5031,-6.5069,-6.5118,-6.5187,-6.5203,-6.5275,-6.5354,-6.5341,-6.5437,-6.548,-6.5568,-6.5597,-6.5671,-6.5632,-6.567,-6.5679,-6.5689,-6.5701,-6.5436,-6.5683,-6.5682,-6.5681,-6.5681,-6.568,0,-6.5076,-6.5104,-6.5179,-6.5254,-6.5318,-6.528,-6.5335,-6.5391,-6.5476,-6.5521,-6.5585,-6.5683,-6.5759,-6.578,-6.5853,-6.5908,-6.5893,-6.5928,-6.5924,-6.593,-6.573,-6.5701,-6.5939,-6.5939,-6.5939,-6.5939,-6.5938,-6.5938,-6.5212,-6.5334,-6.5338,-6.5478,-6.5504,-6.56,-6.5635,-6.568,-6.5715,-6.5828,-6.5892,-6.5906,-6.5941,-6.6016,-6.6085,-6.6088,-6.6117,-6.6159,-6.6156,-6.597,-6.5944,-6.5919,-6.5892,-6.6165,-6.6166,-6.635,-6.6351,-6.6353]}]]